Content
SEND FEEDBACK

Daily
Averages
Monthly
Summary
Mexico

PLAYA DEL CARMEN, QUINTANA ROO


Home > North America > Mexico > Quintana Roo
Elevation: 30 feet     Latitude: 20 38N     Longitude: 087 04W

WEATHER
 
SELECT A DAY
Number of Records: 201,963;   Date Range: 2/21/06 - 10/21/14
 
SHARE

PRINT THIS DATA

[ ← Previous Day ]
WEATHER ALMANAC - JUNE 9, 2014
[ Next Day → ]
[ °C ]   °F
Weather ElementAverageHighLow
Temperature81.2 °F93.2 °F (12:35 pm)69.8 °F (6:35 am)
Dewpoint40 °F77 °F (9:35 am) (7:00 pm)
Humidity54.6 %79 % (9:35 am)38 % (12:35 pm)
Barometer29.99 in30.03 in (12:35 am)29.92 in (4:35 am)
Wind Speed2.1 mph12.7 mph (4:15 pm)
Wind Gust18.4 mph (4:55 pm)
Weather ElementAverage
Visibility9.7 mi
Wind DirectionE (90.2 °)

Weather ElementTotal
Precipitation---
Cooling Degree Days16.5 (Base 65)
Growing Degree Days31.5 (Base 50)
Averaged from 66 records on June 9, 2014
WEATHER CONDITIONS BREAKOUT
WIND DIRECTION BREAKOUT
WEATHER BY HOUR - JUNE 9, 2014
[ °C ]   °F
Local TimeTemperatureDewpointHumidityBarometerVisibilityWind DirectionWind SpeedGust SpeedPrecipitationEventsConditions
12:35 AM75.2 °F0.0 °F30.03 in10.0 miCalmClear
12:55 AM75.2 °F0.0 °F30.02 in10.0 miWSW (240°)4.6 mphScattered Clouds
1:15 AM75.2 °F0.0 °F30.01 in10.0 miCalmScattered Clouds
1:35 AM75.2 °F0.0 °F30.01 in10.0 miCalmClear
1:55 AM75.2 °F0.0 °F29.99 in10.0 miCalmClear
2:15 AM73.4 °F0.0 °F29.99 in10.0 miCalmClear
2:35 AM73.4 °F0.0 °F29.98 in10.0 miCalmClear
2:55 AM73.4 °F0.0 °F29.96 in10.0 miCalmClear
3:15 AM73.4 °F0.0 °F29.97 in10.0 miCalmClear
3:35 AM71.6 °F0.0 °F29.95 in10.0 miCalmClear
3:55 AM71.6 °F0.0 °F29.94 in10.0 miCalmClear
4:15 AM71.6 °F0.0 °F29.93 in10.0 miCalmClear
4:35 AM71.6 °F0.0 °F29.92 in10.0 miWest (270°)3.5 mphClear
4:55 AM71.6 °F0.0 °F29.92 in10.0 miCalmClear
5:15 AM71.6 °F0.0 °F29.93 in10.0 miCalmClear
5:35 AM71.6 °F0.0 °F29.94 in10.0 miCalmClear
5:55 AM71.6 °F0.0 °F29.94 in7.0 miCalmClear
6:15 AM71.6 °F0.0 °F29.95 in10.0 miCalmClear
6:35 AM69.8 °F0.0 °F29.96 in10.0 miCalmClear
6:55 AM69.8 °F0.0 °F29.96 in3.0 miCalmClear
7:15 AM69.8 °F0.0 °F29.97 in4.0 miCalmHaze
7:35 AM71.6 °F0.0 °F29.98 in7.0 miCalmClear
7:55 AM73.4 °F0.0 °F29.99 in7.0 miCalmClear
8:15 AM75.2 °F0.0 °F29.99 in10.0 miCalmClear
8:35 AM77.0 °F0.0 °F30.00 in10.0 miNorthClear
8:55 AM80.6 °F0.0 °F30.00 in10.0 miCalmClear
9:15 AM82.4 °F0.0 °F30.01 in10.0 miWest (270°)3.5 mphClear
9:35 AM84.2 °F77.0 °F79 %30.01 in10.0 miWSW (240°)3.5 mphClear
9:55 AM84.2 °F73.4 °F70 %30.01 in10.0 miWNW (300°)3.5 mphClear
10:15 AM86.0 °F71.6 °F62 %30.02 in10.0 miCalmClear
10:35 AM87.8 °F69.8 °F55 %30.02 in10.0 miCalmClear
10:55 AM87.8 °F68.0 °F52 %30.02 in10.0 miSW (230°)3.5 mphClear
11:15 AM89.6 °F69.8 °F52 %30.03 in10.0 miWNW (300°)4.6 mphClear
11:35 AM89.6 °F68.0 °F49 %30.02 in10.0 miNW (320°)4.6 mphClear
11:55 AM89.6 °F68.0 °F49 %30.02 in10.0 miNNE (30°)3.5 mphScattered Clouds
12:35 PM93.2 °F64.4 °F38 %30.02 in10.0 miCalmScattered Clouds
12:55 PM93.2 °F64.4 °F38 %30.02 in10.0 miCalmScattered Clouds
1:15 PM91.4 °F66.2 °F43 %30.02 in10.0 miCalmOvercast
1:35 PM91.4 °F66.2 °F43 %30.01 in10.0 miCalmMostly Cloudy
1:55 PM93.2 °F66.2 °F41 %30.00 in10.0 miENE (70°)6.9 mphScattered Clouds
2:15 PM93.2 °F66.2 °F41 %29.99 in10.0 miEast (80°)3.5 mphScattered Clouds
2:35 PM93.2 °F64.4 °F38 %29.98 in10.0 miCalmScattered Clouds
4:15 PM91.4 °F68.0 °F46 %29.96 in10.0 miWest (280°)12.7 mphMostly Cloudy
4:35 PM91.4 °F66.2 °F43 %29.96 in10.0 miWest (270°)9.2 mphScattered Clouds
4:55 PM87.8 °F66.2 °F49 %29.96 in10.0 miWNW (300°)8.1 mph18.4 mphClear
5:15 PM89.6 °F66.2 °F46 %29.95 in10.0 miWNW (300°)4.6 mphClear
5:35 PM91.4 °F64.4 °F41 %29.96 in10.0 miNW (310°)9.2 mphClear
5:55 PM89.6 °F66.2 °F46 %29.96 in10.0 miNW (310°)6.9 mphClear
6:15 PM89.6 °F62.6 °F40 %29.96 in10.0 miWest (280°)6.9 mphClear
6:35 PM89.6 °F62.6 °F40 %29.96 in10.0 miWest (260°)8.1 mphClear
6:55 PM87.8 °F64.4 °F46 %29.96 in10.0 miWest (280°)5.8 mphClear
7:15 PM86.0 °F66.2 °F51 %29.97 in10.0 miNW (320°)6.9 mphClear
7:35 PM86.0 °F66.2 °F51 %29.98 in10.0 miNorth (350°)5.8 mphScattered Clouds
7:55 PM84.2 °F66.2 °F55 %29.98 in10.0 miNNW (340°)4.6 mphScattered Clouds
8:15 PM84.2 °F66.2 °F55 %29.99 in10.0 miCalmClear
8:35 PM82.4 °F66.2 °F58 %29.99 in10.0 miCalmClear
8:55 PM82.4 °F66.2 °F58 %30.00 in10.0 miCalmScattered Clouds
9:15 PM80.6 °F68.0 °F65 %29.99 in10.0 miCalmScattered Clouds
9:35 PM82.4 °F68.0 °F62 %29.99 in10.0 miCalmClear
9:55 PM78.8 °F69.8 °F74 %30.00 in10.0 miCalmClear
10:15 PM78.8 °F69.8 °F74 %30.00 in10.0 miCalmClear
10:35 PM78.8 °F69.8 °F74 %30.00 in10.0 miCalmClear
10:55 PM78.8 °F69.8 °F74 %30.01 in10.0 miCalmClear
11:15 PM80.6 °F71.6 °F74 %30.02 in10.0 miCalmClear
11:35 PM78.8 °F71.6 °F78 %30.02 in10.0 miCalmClear
11:55 PM78.8 °F71.6 °F78 %30.02 in10.0 miCalmScattered Clouds
Hourly data recorded from KPCM, located miles away from Playa del Carmen, Quintana Roo







STORIES FROM OUR PARTNERS